Time,TemperatureF,DewpointF,PressureIn,WindDirection,WindDirectionDegrees,WindSpeedMPH,WindSpeedGustMPH,Humidity,HourlyPrecipIn,Conditions,Clouds,dailyrainin,SoftwareType,DateUTC
2013-03-10 00:00:00,42.5,35.8,29.98,SE,125,8.0,11.0,77,0.00,,,0.00,WUHU216DAVISVP2,2013-03-10 05:00:00,
2013-03-10 00:01:00,42.5,35.8,29.98,SE,139,6.0,11.0,77,0.00,,,0.00,WUHU216DAVISVP2,2013-03-10 05:01:00,
2013-03-10 00:06:00,42.6,35.9,29.98,SE,131,7.0,11.0,77,0.00,,,0.00,WUHU216DAVISVP2,2013-03-10 05:06:00,
2013-03-10 00:11:00,42.7,36.0,29.98,SE,130,9.0,11.0,77,0.00,,,0.00,WUHU216DAVISVP2,2013-03-10 05:11:00,
2013-03-10 00:15:00,42.5,35.8,29.98,SE,133,6.0,11.0,77,0.00,,,0.00,WUHU216DAVISVP2,2013-03-10 05:15:00,
2013-03-10 00:20:00,42.7,36.0,29.98,SE,125,5.0,10.0,77,0.00,,,0.00,WUHU216DAVISVP2,2013-03-10 05:20:00,
2013-03-10 00:25:00,42.8,35.8,29.98,SE,137,5.0,10.0,76,0.00,,,0.00,WUHU216DAVISVP2,2013-03-10 05:25:00,
2013-03-10 00:30:00,42.9,35.9,29.98,SE,129,4.0,10.0,76,0.00,,,0.00,WUHU216DAVISVP2,2013-03-10 05:30:00,
2013-03-10 00:35:00,43.1,36.1,29.97,ESE,122,6.0,10.0,76,0.00,,,0.00,WUHU216DAVISVP2,2013-03-10 05:35:00,
2013-03-10 00:40:00,43.3,36.0,29.97,SE,125,9.0,10.0,75,0.00,,,0.00,WUHU216DAVISVP2,2013-03-10 05:40:00,
2013-03-10 00:45:00,43.5,36.2,29.97,SE,141,5.0,9.0,75,0.00,,,0.00,WUHU216DAVISVP2,2013-03-10 05:45:00,
2013-03-10 00:50:00,43.8,36.1,29.97,SE,133,4.0,9.0,74,0.00,,,0.00,WUHU216DAVISVP2,2013-03-10 05:50:00,
2013-03-10 00:55:00,43.8,36.1,29.97,ESE,123,5.0,10.0,74,0.00,,,0.00,WUHU216DAVISVP2,2013-03-10 05:55:00,
2013-03-10 01:00:00,43.9,36.2,29.97,SE,130,6.0,11.0,74,0.00,,,0.00,WUHU216DAVISVP2,2013-03-10 06:00:00,
2013-03-10 01:05:00,44.1,36.1,29.97,SE,133,6.0,11.0,73,0.00,,,0.00,WUHU216DAVISVP2,2013-03-10 06:05:00,
2013-03-10 01:10:00,44.3,36.3,29.97,SE,140,5.0,11.0,73,0.00,,,0.00,WUHU216DAVISVP2,2013-03-10 06:10:00,
2013-03-10 01:15:00,44.4,36.4,29.96,SE,139,5.0,11.0,73,0.00,,,0.00,WUHU216DAVISVP2,2013-03-10 06:15:00,
2013-03-10 01:20:00,44.4,36.4,29.97,SE,131,4.0,10.0,73,0.00,,,0.00,WUHU216DAVISVP2,2013-03-10 06:20:00,
2013-03-10 01:25:00,44.4,36.4,29.96,SE,126,6.0,9.0,73,0.00,,,0.00,WUHU216DAVISVP2,2013-03-10 06:25:00,
2013-03-10 01:30:00,44.3,36.3,29.96,ESE,123,9.0,9.0,73,0.00,,,0.00,WUHU216DAVISVP2,2013-03-10 06:30:00,
2013-03-10 01:35:00,44.4,36.4,29.96,SE,136,8.0,9.0,73,0.00,,,0.00,WUHU216DAVISVP2,2013-03-10 06:35:00,
2013-03-10 01:40:00,44.5,36.5,29.97,SE,127,6.0,10.0,73,0.00,,,0.00,WUHU216DAVISVP2,2013-03-10 06:40:00,
2013-03-10 01:45:00,44.5,36.1,29.96,SE,131,6.0,10.0,72,0.00,,,0.00,WUHU216DAVISVP2,2013-03-10 06:45:00,
2013-03-10 01:50:00,44.5,36.1,29.96,SE,134,5.0,10.0,72,0.00,,,0.00,WUHU216DAVISVP2,2013-03-10 06:50:00,
2013-03-10 01:55:00,44.4,36.4,29.96,SE,131,8.0,9.0,73,0.00,,,0.00,WUHU216DAVISVP2,2013-03-10 06:55:00,
2013-03-10 03:00:00,44.4,36.4,29.96,ESE,123,6.0,10.0,73,0.00,,,0.00,WUHU216DAVISVP2,2013-03-10 07:00:00,
2013-03-10 03:05:00,44.4,36.4,29.96,SE,125,5.0,10.0,73,0.00,,,0.00,WUHU216DAVISVP2,2013-03-10 07:05:00,
2013-03-10 03:10:00,44.4,36.0,29.96,SE,134,5.0,10.0,72,0.00,,,0.00,WUHU216DAVISVP2,2013-03-10 07:10:00,
2013-03-10 03:15:00,44.4,36.4,29.96,SE,133,6.0,10.0,73,0.00,,,0.00,WUHU216DAVISVP2,2013-03-10 07:15:00,
2013-03-10 03:20:00,44.6,36.2,29.95,SE,130,7.0,11.0,72,0.00,,,0.00,WUHU216DAVISVP2,2013-03-10 07:20:00,
2013-03-10 03:25:00,44.7,36.3,29.95,SE,140,7.0,11.0,72,0.00,,,0.00,WUHU216DAVISVP2,2013-03-10 07:25:00,
2013-03-10 03:30:00,44.7,36.2,29.95,SE,141,5.0,11.0,72,0.00,,,0.00,WUHU216DAVISVP2,2013-03-10 07:30:00,
2013-03-10 03:35:00,44.9,36.4,29.94,SE,124,6.0,10.0,72,0.00,,,0.00,WUHU216DAVISVP2,2013-03-10 07:35:00,
2013-03-10 03:40:00,45.0,36.5,29.94,SE,135,5.0,10.0,72,0.00,,,0.00,WUHU216DAVISVP2,2013-03-10 07:40:00,
2013-03-10 03:45:00,45.1,36.3,29.94,ESE,117,5.0,10.0,71,0.00,,,0.00,WUHU216DAVISVP2,2013-03-10 07:45:00,
2013-03-10 03:50:00,45.2,36.4,29.94,ESE,123,5.0,11.0,71,0.00,,,0.00,WUHU216DAVISVP2,2013-03-10 07:50:00,
2013-03-10 03:55:00,45.3,36.4,29.94,SE,130,6.0,11.0,71,0.00,,,0.00,WUHU216DAVISVP2,2013-03-10 07:55:00,
2013-03-10 04:00:00,45.3,36.4,29.94,ESE,120,7.0,11.0,71,0.00,,,0.00,WUHU216DAVISVP2,2013-03-10 08:00:00,
2013-03-10 04:05:00,45.3,36.5,29.94,SE,139,4.0,11.0,71,0.00,,,0.00,WUHU216DAVISVP2,2013-03-10 08:05:00,
2013-03-10 04:10:00,45.1,36.3,29.94,SE,133,5.0,8.0,71,0.00,,,0.00,WUHU216DAVISVP2,2013-03-10 08:10:00,
2013-03-10 04:15:00,45.1,36.3,29.93,SE,128,7.0,9.0,71,0.00,,,0.00,WUHU216DAVISVP2,2013-03-10 08:15:00,
2013-03-10 04:20:00,45.3,36.5,29.93,SE,140,8.0,10.0,71,0.00,,,0.00,WUHU216DAVISVP2,2013-03-10 08:20:00,
2013-03-10 04:25:00,45.4,36.6,29.93,SE,131,9.0,11.0,71,0.00,,,0.00,WUHU216DAVISVP2,2013-03-10 08:25:00,
2013-03-10 04:30:00,45.3,36.5,29.93,SE,131,7.0,11.0,71,0.00,,,0.00,WUHU216DAVISVP2,2013-03-10 08:30:00,
2013-03-10 04:35:00,45.3,36.5,29.93,SE,140,8.0,11.0,71,0.00,,,0.00,WUHU216DAVISVP2,2013-03-10 08:35:00,
2013-03-10 04:40:00,45.5,36.7,29.92,SE,131,5.0,11.0,71,0.00,,,0.00,WUHU216DAVISVP2,2013-03-10 08:40:00,
2013-03-10 04:45:00,45.7,36.9,29.92,SE,136,4.0,11.0,71,0.00,,,0.00,WUHU216DAVISVP2,2013-03-10 08:45:00,
2013-03-10 04:50:00,45.8,36.7,29.92,ESE,113,8.0,11.0,70,0.00,,,0.00,WUHU216DAVISVP2,2013-03-10 08:50:00,
2013-03-10 04:55:00,46.1,37.0,29.92,ESE,105,6.0,11.0,70,0.00,,,0.00,WUHU216DAVISVP2,2013-03-10 08:55:00,
2013-03-10 05:00:00,46.4,36.9,29.92,ESE,110,6.0,10.0,69,0.00,,,0.00,WUHU216DAVISVP2,2013-03-10 09:00:00,
2013-03-10 05:05:00,46.3,36.8,29.92,SE,134,8.0,10.0,69,0.00,,,0.00,WUHU216DAVISVP2,2013-03-10 09:05:00,
2013-03-10 05:10:00,46.3,36.8,29.92,ESE,116,6.0,11.0,69,0.00,,,0.00,WUHU216DAVISVP2,2013-03-10 09:10:00,
2013-03-10 05:15:00,46.1,37.0,29.92,ESE,113,7.0,11.0,70,0.00,,,0.00,WUHU216DAVISVP2,2013-03-10 09:15:00,
2013-03-10 05:20:00,45.8,36.7,29.92,SE,124,7.0,11.0,70,0.00,,,0.00,WUHU216DAVISVP2,2013-03-10 09:20:00,
2013-03-10 05:25:00,45.4,36.6,29.92,East,82,6.0,11.0,71,0.00,,,0.00,WUHU216DAVISVP2,2013-03-10 09:25:00,
2013-03-10 05:30:00,45.3,36.5,29.92,SE,125,5.0,10.0,71,0.00,,,0.00,WUHU216DAVISVP2,2013-03-10 09:30:00,
2013-03-10 05:35:00,45.3,36.9,29.92,ESE,110,6.0,10.0,72,0.00,,,0.00,WUHU216DAVISVP2,2013-03-10 09:35:00,
2013-03-10 05:40:00,45.4,37.0,29.92,ESE,120,5.0,9.0,72,0.00,,,0.00,WUHU216DAVISVP2,2013-03-10 09:40:00,
2013-03-10 05:45:00,45.2,36.8,29.92,SE,126,4.0,9.0,72,0.00,,,0.00,WUHU216DAVISVP2,2013-03-10 09:45:00,
2013-03-10 05:50:00,45.1,36.7,29.92,East,101,4.0,8.0,72,0.00,,,0.00,WUHU216DAVISVP2,2013-03-10 09:50:00,
2013-03-10 05:55:00,44.8,36.7,29.92,ESE,122,6.0,7.0,73,0.00,,,0.00,WUHU216DAVISVP2,2013-03-10 09:55:00,
2013-03-10 06:00:00,44.7,36.7,29.92,East,100,2.0,7.0,73,0.00,,,0.00,WUHU216DAVISVP2,2013-03-10 10:00:00,
2013-03-10 06:05:00,44.3,36.3,29.92,East,96,2.0,7.0,73,0.00,,,0.00,WUHU216DAVISVP2,2013-03-10 10:05:00,
2013-03-10 06:10:00,43.9,36.2,29.92,ESE,119,3.0,7.0,74,0.00,,,0.00,WUHU216DAVISVP2,2013-03-10 10:10:00,
2013-03-10 06:15:00,43.8,36.1,29.93,East,98,4.0,5.0,74,0.00,,,0.00,WUHU216DAVISVP2,2013-03-10 10:15:00,
2013-03-10 06:20:00,43.6,36.3,29.93,East,98,4.0,5.0,75,0.00,,,0.00,WUHU216DAVISVP2,2013-03-10 10:20:00,
2013-03-10 06:25:00,43.5,36.2,29.93,ESE,120,3.0,5.0,75,0.00,,,0.00,WUHU216DAVISVP2,2013-03-10 10:25:00,
2013-03-10 06:30:00,43.7,36.4,29.93,SE,134,5.0,6.0,75,0.00,,,0.00,WUHU216DAVISVP2,2013-03-10 10:30:00,
2013-03-10 06:35:00,43.7,36.4,29.93,SE,130,6.0,6.0,75,0.00,,,0.00,WUHU216DAVISVP2,2013-03-10 10:35:00,
2013-03-10 06:40:00,43.9,36.5,29.93,ESE,105,5.0,8.0,75,0.00,,,0.00,WUHU216DAVISVP2,2013-03-10 10:40:00,
2013-03-10 06:45:00,44.2,36.8,29.94,SE,125,6.0,9.0,75,0.00,,,0.00,WUHU216DAVISVP2,2013-03-10 10:45:00,
2013-03-10 06:50:00,44.5,36.8,29.93,ESE,123,8.0,11.0,74,0.00,,,0.00,WUHU216DAVISVP2,2013-03-10 10:50:00,
2013-03-10 06:55:00,44.8,37.1,29.93,SE,146,6.0,12.0,74,0.00,,,0.00,WUHU216DAVISVP2,2013-03-10 10:55:00,
2013-03-10 07:00:00,44.8,37.1,29.93,SE,139,6.0,12.0,74,0.00,,,0.00,WUHU216DAVISVP2,2013-03-10 11:00:00,
2013-03-10 07:05:00,45.0,37.3,29.93,SE,140,9.0,12.0,74,0.00,,,0.00,WUHU216DAVISVP2,2013-03-10 11:05:00,
2013-03-10 07:10:00,45.1,37.0,29.94,SSE,148,8.0,11.0,73,0.00,,,0.00,WUHU216DAVISVP2,2013-03-10 11:10:00,
2013-03-10 07:15:00,45.1,37.0,29.94,SSE,148,6.0,11.0,73,0.00,,,0.00,WUHU216DAVISVP2,2013-03-10 11:15:00,
2013-03-10 07:20:00,45.2,37.1,29.94,SSE,153,5.0,11.0,73,0.00,,,0.00,WUHU216DAVISVP2,2013-03-10 11:20:00,
2013-03-10 07:25:00,45.1,37.0,29.94,SE,125,5.0,11.0,73,0.00,,,0.00,WUHU216DAVISVP2,2013-03-10 11:25:00,
2013-03-10 07:30:00,45.2,37.1,29.94,SE,143,6.0,11.0,73,0.00,,,0.00,WUHU216DAVISVP2,2013-03-10 11:30:00,
2013-03-10 07:35:00,45.3,37.2,29.94,SSE,154,6.0,11.0,73,0.00,,,0.00,WUHU216DAVISVP2,2013-03-10 11:35:00,
2013-03-10 07:40:00,45.2,37.1,29.94,SE,145,8.0,11.0,73,0.00,,,0.00,WUHU216DAVISVP2,2013-03-10 11:40:00,
2013-03-10 07:45:00,45.3,37.6,29.94,SSE,148,7.0,11.0,74,0.00,,,0.00,WUHU216DAVISVP2,2013-03-10 11:45:00,
2013-03-10 07:50:00,45.4,37.7,29.94,SE,140,5.0,11.0,74,0.00,,,0.00,WUHU216DAVISVP2,2013-03-10 11:50:00,
2013-03-10 07:55:00,45.5,37.8,29.94,SE,141,7.0,11.0,74,0.00,,,0.00,WUHU216DAVISVP2,2013-03-10 11:55:00,
2013-03-10 08:00:00,45.4,37.7,29.94,SE,126,5.0,11.0,74,0.00,,,0.00,WUHU216DAVISVP2,2013-03-10 12:00:00,
2013-03-10 08:05:00,45.4,38.0,29.94,SE,125,8.0,11.0,75,0.00,,,0.00,WUHU216DAVISVP2,2013-03-10 12:05:00,
2013-03-10 08:10:00,45.5,38.1,29.94,SSE,151,6.0,12.0,75,0.00,,,0.00,WUHU216DAVISVP2,2013-03-10 12:10:00,
2013-03-10 08:15:00,45.5,38.1,29.94,SE,141,7.0,12.0,75,0.00,,,0.00,WUHU216DAVISVP2,2013-03-10 12:15:00,
2013-03-10 08:20:00,45.6,37.9,29.94,SE,139,4.0,12.0,74,0.00,,,0.00,WUHU216DAVISVP2,2013-03-10 12:20:00,
2013-03-10 08:25:00,45.6,37.9,29.93,SE,127,4.0,12.0,74,0.00,,,0.00,WUHU216DAVISVP2,2013-03-10 12:25:00,
2013-03-10 08:30:00,45.8,38.1,29.94,SE,133,4.0,12.0,74,0.00,,,0.00,WUHU216DAVISVP2,2013-03-10 12:30:00,
2013-03-10 08:35:00,45.9,38.2,29.93,SE,131,5.0,10.0,74,0.00,,,0.00,WUHU216DAVISVP2,2013-03-10 12:35:00,
2013-03-10 08:40:00,45.9,38.2,29.93,SE,134,5.0,10.0,74,0.00,,,0.00,WUHU216DAVISVP2,2013-03-10 12:40:00,
2013-03-10 08:46:00,45.8,38.1,29.93,SE,130,7.0,10.0,74,0.00,,,0.00,WUHU216DAVISVP2,2013-03-10 12:46:00,
2013-03-10 08:51:00,45.7,38.0,29.93,SE,138,5.0,9.0,74,0.00,,,0.00,WUHU216DAVISVP2,2013-03-10 12:51:00,
2013-03-10 08:56:00,45.9,38.2,29.93,ESE,117,5.0,9.0,74,0.00,,,0.00,WUHU216DAVISVP2,2013-03-10 12:56:00,
2013-03-10 09:01:00,46.1,38.3,29.93,SE,145,6.0,9.0,74,0.00,,,0.00,WUHU216DAVISVP2,2013-03-10 13:01:00,
2013-03-10 09:06:00,46.3,38.5,29.93,SE,145,3.0,9.0,74,0.00,,,0.00,WUHU216DAVISVP2,2013-03-10 13:06:00,
2013-03-10 09:11:00,46.4,38.6,29.93,SE,145,4.0,9.0,74,0.00,,,0.00,WUHU216DAVISVP2,2013-03-10 13:11:00,
2013-03-10 09:16:00,46.4,38.6,29.93,SE,137,5.0,9.0,74,0.00,,,0.00,WUHU216DAVISVP2,2013-03-10 13:16:00,
2013-03-10 09:21:00,46.5,38.7,29.92,ESE,120,4.0,10.0,74,0.00,,,0.00,WUHU216DAVISVP2,2013-03-10 13:21:00,
2013-03-10 09:26:00,46.6,38.8,29.92,SE,141,5.0,10.0,74,0.00,,,0.00,WUHU216DAVISVP2,2013-03-10 13:26:00,
2013-03-10 09:31:00,46.6,38.8,29.92,SE,143,3.0,10.0,74,0.00,,,0.00,WUHU216DAVISVP2,2013-03-10 13:31:00,
2013-03-10 09:36:00,46.6,38.8,29.92,SE,136,8.0,10.0,74,0.00,,,0.00,WUHU216DAVISVP2,2013-03-10 13:36:00,
2013-03-10 09:41:00,46.9,38.8,29.92,SE,133,5.0,9.0,73,0.00,,,0.00,WUHU216DAVISVP2,2013-03-10 13:41:00,
2013-03-10 09:46:00,47.1,39.0,29.92,SE,140,3.0,9.0,73,0.00,,,0.00,WUHU216DAVISVP2,2013-03-10 13:46:00,
2013-03-10 09:51:00,47.3,39.2,29.92,SE,141,5.0,9.0,73,0.00,,,0.00,WUHU216DAVISVP2,2013-03-10 13:51:00,
2013-03-10 09:56:00,47.6,39.5,29.92,SSE,148,8.0,9.0,73,0.00,,,0.00,WUHU216DAVISVP2,2013-03-10 13:56:00,
2013-03-10 10:01:00,47.9,39.4,29.92,SE,141,7.0,9.0,72,0.00,,,0.00,WUHU216DAVISVP2,2013-03-10 14:01:00,
2013-03-10 10:06:00,48.1,39.6,29.92,SSE,167,6.0,10.0,72,0.00,,,0.00,WUHU216DAVISVP2,2013-03-10 14:06:00,
2013-03-10 10:11:00,48.2,39.3,29.92,SE,135,7.0,11.0,71,0.00,,,0.00,WUHU216DAVISVP2,2013-03-10 14:11:00,
2013-03-10 10:16:00,48.4,39.5,29.92,SSE,151,5.0,11.0,71,0.00,,,0.00,WUHU216DAVISVP2,2013-03-10 14:16:00,
2013-03-10 10:21:00,48.4,39.4,29.92,SSE,159,6.0,11.0,71,0.00,,,0.00,WUHU216DAVISVP2,2013-03-10 14:21:00,
2013-03-10 10:26:00,48.4,39.4,29.92,SSE,147,7.0,12.0,71,0.00,,,0.00,WUHU216DAVISVP2,2013-03-10 14:26:00,
2013-03-10 10:31:00,48.5,39.6,29.92,SSE,155,6.0,12.0,71,0.00,,,0.00,WUHU216DAVISVP2,2013-03-10 14:31:00,
2013-03-10 10:36:00,48.4,39.5,29.91,SE,137,8.0,13.0,71,0.00,,,0.00,WUHU216DAVISVP2,2013-03-10 14:36:00,
2013-03-10 10:41:00,48.3,39.4,29.92,SSE,148,6.0,13.0,71,0.00,,,0.00,WUHU216DAVISVP2,2013-03-10 14:41:00,
2013-03-10 10:46:00,48.1,39.6,29.92,SSE,156,6.0,13.0,72,0.00,,,0.00,WUHU216DAVISVP2,2013-03-10 14:46:00,
2013-03-10 10:51:00,48.0,39.5,29.91,SE,140,8.0,13.0,72,0.00,,,0.00,WUHU216DAVISVP2,2013-03-10 14:51:00,
2013-03-10 10:56:00,48.3,39.8,29.91,SE,130,11.0,13.0,72,0.00,,,0.00,WUHU216DAVISVP2,2013-03-10 14:56:00,
2013-03-10 11:01:00,48.4,39.9,29.92,SSE,159,10.0,13.0,72,0.00,,,0.00,WUHU216DAVISVP2,2013-03-10 15:01:00,
2013-03-10 11:06:00,48.6,40.1,29.92,SE,145,10.0,13.0,72,0.00,,,0.00,WUHU216DAVISVP2,2013-03-10 15:06:00,
2013-03-10 11:11:00,48.9,40.4,29.92,SE,131,8.0,15.0,72,0.00,,,0.00,WUHU216DAVISVP2,2013-03-10 15:11:00,
2013-03-10 11:16:00,49.1,40.6,29.92,South,169,6.0,15.0,72,0.00,,,0.00,WUHU216DAVISVP2,2013-03-10 15:16:00,
2013-03-10 11:21:00,49.3,40.4,29.92,SE,139,7.0,15.0,71,0.00,,,0.00,WUHU216DAVISVP2,2013-03-10 15:21:00,
2013-03-10 11:26:00,49.4,40.8,29.92,SE,139,4.0,15.0,72,0.00,,,0.00,WUHU216DAVISVP2,2013-03-10 15:26:00,
2013-03-10 11:31:00,49.8,41.2,29.91,SSE,148,7.0,15.0,72,0.00,,,0.00,WUHU216DAVISVP2,2013-03-10 15:31:00,
2013-03-10 11:36:00,50.1,41.2,29.91,SSE,157,8.0,11.0,71,0.00,,,0.00,WUHU216DAVISVP2,2013-03-10 15:36:00,
2013-03-10 11:41:00,50.4,41.5,29.91,SSE,153,7.0,13.0,71,0.00,,,0.00,WUHU216DAVISVP2,2013-03-10 15:41:00,
2013-03-10 11:46:00,50.5,41.4,29.91,SSE,160,7.0,13.0,71,0.00,,,0.00,WUHU216DAVISVP2,2013-03-10 15:46:00,
2013-03-10 11:51:00,50.6,41.6,29.91,SE,141,10.0,14.0,71,0.00,,,0.00,WUHU216DAVISVP2,2013-03-10 15:51:00,
2013-03-10 11:56:00,50.8,41.8,29.90,SSE,167,8.0,14.0,71,0.00,,,0.00,WUHU216DAVISVP2,2013-03-10 15:56:00,
2013-03-10 12:01:00,51.2,42.2,29.91,South,180,9.0,15.0,71,0.00,,,0.00,WUHU216DAVISVP2,2013-03-10 16:01:00,
2013-03-10 12:06:00,51.5,42.5,29.91,SSE,152,9.0,15.0,71,0.00,,,0.00,WUHU216DAVISVP2,2013-03-10 16:06:00,
2013-03-10 12:11:00,51.6,42.6,29.91,SSE,148,18.0,18.0,71,0.00,,,0.00,WUHU216DAVISVP2,2013-03-10 16:11:00,
2013-03-10 12:16:00,51.7,42.3,29.90,SE,130,9.0,19.0,70,0.00,,,0.00,WUHU216DAVISVP2,2013-03-10 16:16:00,
2013-03-10 12:21:00,51.7,42.3,29.89,SE,126,11.0,19.0,70,0.00,,,0.00,WUHU216DAVISVP2,2013-03-10 16:21:00,
2013-03-10 12:26:00,51.9,42.9,29.90,SE,140,8.0,19.0,71,0.00,,,0.00,WUHU216DAVISVP2,2013-03-10 16:26:00,
2013-03-10 12:31:00,52.0,42.6,29.90,SSE,153,7.0,15.0,70,0.00,,,0.00,WUHU216DAVISVP2,2013-03-10 16:31:00,
2013-03-10 12:36:00,52.1,43.1,29.90,South,169,6.0,15.0,71,0.00,,,0.00,WUHU216DAVISVP2,2013-03-10 16:36:00,
2013-03-10 12:41:00,52.0,43.0,29.89,SSE,148,6.0,14.0,71,0.00,,,0.00,WUHU216DAVISVP2,2013-03-10 16:41:00,
2013-03-10 12:46:00,52.0,43.0,29.89,SSE,157,6.0,15.0,71,0.00,,,0.00,WUHU216DAVISVP2,2013-03-10 16:46:00,
2013-03-10 12:51:00,52.0,43.0,29.89,South,169,11.0,15.0,71,0.00,,,0.00,WUHU216DAVISVP2,2013-03-10 16:51:00,
2013-03-10 12:56:00,52.1,43.4,29.89,South,180,6.0,15.0,72,0.00,,,0.00,WUHU216DAVISVP2,2013-03-10 16:56:00,
2013-03-10 13:01:00,52.2,43.5,29.89,SSE,155,10.0,15.0,72,0.00,,,0.00,WUHU216DAVISVP2,2013-03-10 17:01:00,
2013-03-10 13:06:00,52.5,43.8,29.89,SSE,160,11.0,15.0,72,0.00,,,0.00,WUHU216DAVISVP2,2013-03-10 17:06:00,
2013-03-10 13:11:00,52.7,44.0,29.88,SSE,165,9.0,16.0,72,0.00,,,0.00,WUHU216DAVISVP2,2013-03-10 17:11:00,
2013-03-10 13:16:00,53.2,44.5,29.88,South,188,10.0,16.0,72,0.00,,,0.00,WUHU216DAVISVP2,2013-03-10 17:16:00,
2013-03-10 13:21:00,53.8,44.7,29.88,SSE,159,7.0,16.0,71,0.00,,,0.00,WUHU216DAVISVP2,2013-03-10 17:21:00,
2013-03-10 13:26:00,54.3,44.8,29.88,SSE,151,13.0,17.0,70,0.00,,,0.00,WUHU216DAVISVP2,2013-03-10 17:26:00,
2013-03-10 13:31:00,54.7,44.8,29.88,South,181,10.0,17.0,69,0.00,,,0.00,WUHU216DAVISVP2,2013-03-10 17:31:00,
2013-03-10 13:36:00,55.1,45.2,29.88,SSE,160,11.0,17.0,69,0.00,,,0.00,WUHU216DAVISVP2,2013-03-10 17:36:00,
2013-03-10 13:41:00,55.1,44.9,29.88,SSE,148,10.0,17.0,68,0.00,,,0.00,WUHU216DAVISVP2,2013-03-10 17:41:00,
2013-03-10 13:46:00,55.0,45.5,29.88,SSE,151,12.0,17.0,70,0.00,,,0.00,WUHU216DAVISVP2,2013-03-10 17:46:00,
2013-03-10 13:51:00,55.1,45.2,29.89,SSE,155,8.0,17.0,69,0.00,,,0.00,WUHU216DAVISVP2,2013-03-10 17:51:00,
2013-03-10 13:56:00,55.4,45.9,29.89,SSE,165,7.0,17.0,70,0.00,,,0.00,WUHU216DAVISVP2,2013-03-10 17:56:00,
2013-03-10 14:01:00,55.5,45.6,29.89,SE,137,10.0,17.0,69,0.00,,,0.00,WUHU216DAVISVP2,2013-03-10 18:01:00,
2013-03-10 14:06:00,55.5,45.6,29.89,SSE,166,8.0,17.0,69,0.00,,,0.00,WUHU216DAVISVP2,2013-03-10 18:06:00,
2013-03-10 14:11:00,55.3,45.3,29.90,SSE,166,14.0,17.0,69,0.00,,,0.00,WUHU216DAVISVP2,2013-03-10 18:11:00,
2013-03-10 14:16:00,55.2,45.3,29.89,SSE,158,9.0,17.0,69,0.00,,,0.00,WUHU216DAVISVP2,2013-03-10 18:16:00,
2013-03-10 14:21:00,55.1,45.6,29.89,SSE,151,13.0,15.0,70,0.00,,,0.00,WUHU216DAVISVP2,2013-03-10 18:21:00,
2013-03-10 14:26:00,54.8,45.3,29.88,SE,146,6.0,15.0,70,0.00,,,0.00,WUHU216DAVISVP2,2013-03-10 18:26:00,
2013-03-10 14:31:00,54.7,45.2,29.88,SSE,158,10.0,14.0,70,0.00,,,0.00,WUHU216DAVISVP2,2013-03-10 18:31:00,
2013-03-10 14:36:00,54.7,45.6,29.89,SSE,167,10.0,14.0,71,0.00,,,0.00,WUHU216DAVISVP2,2013-03-10 18:36:00,
2013-03-10 14:41:00,54.7,45.6,29.88,SSE,150,5.0,14.0,71,0.00,,,0.00,WUHU216DAVISVP2,2013-03-10 18:41:00,
2013-03-10 14:46:00,55.0,45.9,29.87,SSE,165,7.0,13.0,71,0.00,,,0.00,WUHU216DAVISVP2,2013-03-10 18:46:00,
2013-03-10 14:51:00,55.4,45.9,29.86,SSE,148,11.0,15.0,70,0.00,,,0.00,WUHU216DAVISVP2,2013-03-10 18:51:00,
2013-03-10 14:56:00,55.6,46.1,29.86,SSE,148,7.0,15.0,70,0.00,,,0.00,WUHU216DAVISVP2,2013-03-10 18:56:00,
2013-03-10 15:01:00,55.6,46.5,29.85,ESE,113,9.0,15.0,71,0.00,,,0.00,WUHU216DAVISVP2,2013-03-10 19:01:00,
2013-03-10 15:06:00,55.7,46.2,29.84,SE,140,11.0,15.0,70,0.00,,,0.00,WUHU216DAVISVP2,2013-03-10 19:06:00,
2013-03-10 15:11:00,55.9,46.7,29.84,ESE,111,11.0,13.0,71,0.00,,,0.00,WUHU216DAVISVP2,2013-03-10 19:11:00,
2013-03-10 15:16:00,56.2,46.7,29.83,ESE,116,6.0,13.0,70,0.00,,,0.00,WUHU216DAVISVP2,2013-03-10 19:16:00,
2013-03-10 15:21:00,56.3,46.8,29.83,SE,134,9.0,14.0,70,0.00,,,0.00,WUHU216DAVISVP2,2013-03-10 19:21:00,
2013-03-10 15:26:00,56.2,45.9,29.83,SE,130,11.0,14.0,68,0.00,,,0.00,WUHU216DAVISVP2,2013-03-10 19:26:00,
2013-03-10 15:31:00,56.3,46.4,29.82,SE,138,10.0,13.0,69,0.00,,,0.00,WUHU216DAVISVP2,2013-03-10 19:31:00,
2013-03-10 15:36:00,56.4,46.1,29.82,ESE,123,9.0,13.0,68,0.00,,,0.00,WUHU216DAVISVP2,2013-03-10 19:36:00,
2013-03-10 15:41:00,56.5,46.6,29.82,SE,136,7.0,13.0,69,0.00,,,0.00,WUHU216DAVISVP2,2013-03-10 19:41:00,
2013-03-10 15:46:00,56.7,46.4,29.82,ESE,117,10.0,13.0,68,0.00,,,0.00,WUHU216DAVISVP2,2013-03-10 19:46:00,
2013-03-10 15:52:00,56.9,47.0,29.82,SE,141,7.0,12.0,69,0.00,,,0.00,WUHU216DAVISVP2,2013-03-10 19:52:00,
2013-03-10 15:57:00,56.9,46.6,29.82,ESE,117,6.0,12.0,68,0.00,,,0.00,WUHU216DAVISVP2,2013-03-10 19:57:00,
2013-03-10 16:02:00,56.9,46.6,29.82,SE,138,10.0,14.0,68,0.00,,,0.00,WUHU216DAVISVP2,2013-03-10 20:02:00,
2013-03-10 16:07:00,57.0,46.7,29.82,ESE,117,6.0,14.0,68,0.00,,,0.00,WUHU216DAVISVP2,2013-03-10 20:07:00,
2013-03-10 16:12:00,57.0,46.7,29.82,SE,141,5.0,14.0,68,0.00,,,0.00,WUHU216DAVISVP2,2013-03-10 20:12:00,
2013-03-10 16:17:00,56.9,46.8,29.82,SE,126,7.0,14.0,69,0.00,,,0.00,WUHU216DAVISVP2,2013-03-10 20:17:00,
2013-03-10 16:22:00,56.9,47.2,29.82,ESE,120,6.0,11.0,70,0.00,,,0.00,WUHU216DAVISVP2,2013-03-10 20:22:00,
2013-03-10 16:27:00,57.0,47.1,29.83,SE,130,7.0,11.0,69,0.00,,,0.00,WUHU216DAVISVP2,2013-03-10 20:27:00,
2013-03-10 16:32:00,57.5,47.5,29.83,SE,138,8.0,12.0,69,0.00,,,0.00,WUHU216DAVISVP2,2013-03-10 20:32:00,
2013-03-10 16:37:00,57.9,47.5,29.83,SE,131,6.0,12.0,68,0.00,,,0.00,WUHU216DAVISVP2,2013-03-10 20:37:00,
2013-03-10 16:42:00,58.4,47.6,29.82,ESE,117,9.0,13.0,67,0.00,,,0.00,WUHU216DAVISVP2,2013-03-10 20:42:00,
2013-03-10 16:47:00,58.6,47.4,29.83,SE,141,9.0,15.0,66,0.00,,,0.00,WUHU216DAVISVP2,2013-03-10 20:47:00,
2013-03-10 16:52:00,58.8,47.2,29.82,SE,139,9.0,15.0,65,0.00,,,0.00,WUHU216DAVISVP2,2013-03-10 20:52:00,
2013-03-10 16:57:00,58.7,47.1,29.82,SSE,151,9.0,15.0,65,0.00,,,0.00,WUHU216DAVISVP2,2013-03-10 20:57:00,
2013-03-10 17:02:00,58.7,46.3,29.82,SE,134,12.0,15.0,63,0.00,,,0.00,WUHU216DAVISVP2,2013-03-10 21:02:00,
2013-03-10 17:07:00,59.0,45.7,29.82,SE,146,12.0,15.0,61,0.00,,,0.00,WUHU216DAVISVP2,2013-03-10 21:07:00,
2013-03-10 17:12:00,59.0,45.3,29.81,SE,136,11.0,17.0,60,0.00,,,0.00,WUHU216DAVISVP2,2013-03-10 21:12:00,
2013-03-10 17:17:00,59.0,44.8,29.81,South,174,8.0,17.0,59,0.00,,,0.00,WUHU216DAVISVP2,2013-03-10 21:17:00,
2013-03-10 17:22:00,59.1,44.4,29.81,SE,133,10.0,18.0,58,0.00,,,0.00,WUHU216DAVISVP2,2013-03-10 21:22:00,
2013-03-10 17:27:00,59.0,44.3,29.80,SE,129,9.0,18.0,58,0.00,,,0.00,WUHU216DAVISVP2,2013-03-10 21:27:00,
2013-03-10 17:32:00,59.1,44.4,29.80,SE,136,13.0,19.0,58,0.00,,,0.00,WUHU216DAVISVP2,2013-03-10 21:32:00,
2013-03-10 17:37:00,59.2,44.5,29.80,SE,124,11.0,20.0,58,0.00,,,0.00,WUHU216DAVISVP2,2013-03-10 21:37:00,
2013-03-10 17:42:00,59.0,44.3,29.79,SE,133,8.0,20.0,58,0.00,,,0.00,WUHU216DAVISVP2,2013-03-10 21:42:00,
2013-03-10 17:47:00,58.7,44.5,29.78,SE,139,8.0,20.0,59,0.00,,,0.00,WUHU216DAVISVP2,2013-03-10 21:47:00,
2013-03-10 17:52:00,58.6,44.0,29.78,SE,140,12.0,17.0,58,0.00,,,0.00,WUHU216DAVISVP2,2013-03-10 21:52:00,
2013-03-10 17:57:00,58.6,43.5,29.78,SE,133,15.0,18.0,57,0.00,,,0.00,WUHU216DAVISVP2,2013-03-10 21:57:00,
2013-03-10 18:02:00,58.5,43.9,29.78,SE,124,11.0,18.0,58,0.00,,,0.00,WUHU216DAVISVP2,2013-03-10 22:02:00,
2013-03-10 18:07:00,58.2,43.1,29.77,SE,127,10.0,18.0,57,0.00,,,0.00,WUHU216DAVISVP2,2013-03-10 22:07:00,
2013-03-10 18:12:00,58.0,42.9,29.78,SE,133,11.0,16.0,57,0.00,,,0.00,WUHU216DAVISVP2,2013-03-10 22:12:00,
2013-03-10 18:18:00,57.8,43.2,29.77,SE,132,10.0,15.0,58,0.00,,,0.00,WUHU216DAVISVP2,2013-03-10 22:18:00,
2013-03-10 18:23:00,57.7,43.5,29.78,SE,129,11.0,15.0,59,0.00,,,0.00,WUHU216DAVISVP2,2013-03-10 22:23:00,
2013-03-10 18:28:00,57.6,43.4,29.78,SE,134,8.0,15.0,59,0.00,,,0.00,WUHU216DAVISVP2,2013-03-10 22:28:00,
2013-03-10 18:33:00,57.5,43.4,29.79,SE,132,7.0,17.0,59,0.00,,,0.00,WUHU216DAVISVP2,2013-03-10 22:33:00,
2013-03-10 18:38:00,57.3,43.6,29.78,SE,127,9.0,17.0,60,0.00,,,0.00,WUHU216DAVISVP2,2013-03-10 22:38:00,
2013-03-10 18:43:00,57.2,43.1,29.78,ESE,120,7.0,17.0,59,0.00,,,0.00,WUHU216DAVISVP2,2013-03-10 22:43:00,
2013-03-10 18:48:00,57.0,43.2,29.78,SE,141,8.0,17.0,60,0.00,,,0.00,WUHU216DAVISVP2,2013-03-10 22:48:00,
2013-03-10 18:53:00,57.0,43.4,29.78,SE,134,8.0,13.0,60,0.00,,,0.00,WUHU216DAVISVP2,2013-03-10 22:53:00,
2013-03-10 18:58:00,57.0,42.9,29.78,SE,137,11.0,13.0,59,0.00,,,0.00,WUHU216DAVISVP2,2013-03-10 22:58:00,
2013-03-10 19:02:00,57.1,42.6,29.78,SE,136,10.0,13.0,58,0.00,,,0.00,WUHU216DAVISVP2,2013-03-10 23:02:00,
2013-03-10 19:07:00,57.0,42.9,29.78,ESE,113,8.0,13.0,59,0.00,,,0.00,WUHU216DAVISVP2,2013-03-10 23:07:00,
2013-03-10 19:12:00,56.8,42.7,29.78,ESE,123,7.0,13.0,59,0.00,,,0.00,WUHU216DAVISVP2,2013-03-10 23:12:00,
2013-03-10 19:17:00,56.7,42.6,29.78,ESE,115,10.0,13.0,59,0.00,,,0.00,WUHU216DAVISVP2,2013-03-10 23:17:00,
2013-03-10 19:22:00,56.5,42.4,29.78,SE,127,11.0,13.0,59,0.00,,,0.00,WUHU216DAVISVP2,2013-03-10 23:22:00,
2013-03-10 19:27:00,56.7,42.6,29.78,SE,124,6.0,13.0,59,0.00,,,0.00,WUHU216DAVISVP2,2013-03-10 23:27:00,
2013-03-10 19:33:00,56.7,42.6,29.78,ESE,117,12.0,15.0,59,0.00,,,0.00,WUHU216DAVISVP2,2013-03-10 23:33:00,
2013-03-10 19:38:00,56.7,42.2,29.78,ESE,108,9.0,15.0,58,0.00,,,0.00,WUHU216DAVISVP2,2013-03-10 23:38:00,
2013-03-10 19:43:00,56.7,42.6,29.79,SE,126,8.0,15.0,59,0.00,,,0.00,WUHU216DAVISVP2,2013-03-10 23:43:00,
2013-03-10 19:48:00,56.7,42.5,29.78,ESE,116,10.0,16.0,59,0.00,,,0.00,WUHU216DAVISVP2,2013-03-10 23:48:00,
2013-03-10 19:53:00,56.5,42.8,29.78,ESE,120,12.0,16.0,60,0.00,,,0.00,WUHU216DAVISVP2,2013-03-10 23:53:00,
2013-03-10 19:58:00,56.4,42.7,29.78,ESE,111,10.0,17.0,60,0.00,,,0.00,WUHU216DAVISVP2,2013-03-10 23:58:00,
2013-03-10 20:03:00,56.2,43.0,29.78,SE,131,10.0,17.0,61,0.00,,,0.00,WUHU216DAVISVP2,2013-03-11 00:03:00,
2013-03-10 20:08:00,56.2,42.9,29.78,SE,146,11.0,17.0,61,0.00,,,0.00,WUHU216DAVISVP2,2013-03-11 00:08:00,
2013-03-10 20:13:00,56.3,43.0,29.78,SE,133,10.0,17.0,61,0.00,,,0.00,WUHU216DAVISVP2,2013-03-11 00:13:00,
2013-03-10 20:18:00,56.1,42.8,29.77,SE,129,4.0,17.0,61,0.00,,,0.00,WUHU216DAVISVP2,2013-03-11 00:18:00,
2013-03-10 20:23:00,55.9,42.6,29.78,SE,134,7.0,17.0,61,0.00,,,0.00,WUHU216DAVISVP2,2013-03-11 00:23:00,
2013-03-10 20:28:00,55.8,43.0,29.78,ESE,110,8.0,13.0,62,0.00,,,0.00,WUHU216DAVISVP2,2013-03-11 00:28:00,
2013-03-10 20:33:00,55.7,42.9,29.78,ESE,105,10.0,13.0,62,0.00,,,0.00,WUHU216DAVISVP2,2013-03-11 00:33:00,
2013-03-10 20:38:00,55.4,43.0,29.78,East,98,8.0,12.0,63,0.00,,,0.00,WUHU216DAVISVP2,2013-03-11 00:38:00,
2013-03-10 20:43:00,55.3,42.9,29.77,ESE,103,6.0,12.0,63,0.00,,,0.00,WUHU216DAVISVP2,2013-03-11 00:43:00,
2013-03-10 20:48:00,54.8,42.9,29.77,SE,124,7.0,12.0,64,0.00,,,0.00,WUHU216DAVISVP2,2013-03-11 00:48:00,
2013-03-10 20:53:00,54.7,43.2,29.77,ESE,103,6.0,12.0,65,0.00,,,0.00,WUHU216DAVISVP2,2013-03-11 00:53:00,
2013-03-10 20:58:00,54.5,43.0,29.78,ESE,112,4.0,11.0,65,0.00,,,0.00,WUHU216DAVISVP2,2013-03-11 00:58:00,
2013-03-10 21:03:00,54.2,43.1,29.78,ESE,111,9.0,11.0,66,0.00,,,0.00,WUHU216DAVISVP2,2013-03-11 01:03:00,
2013-03-10 21:08:00,54.3,43.6,29.79,SE,145,9.0,11.0,67,0.00,,,0.00,WUHU216DAVISVP2,2013-03-11 01:08:00,
2013-03-10 21:13:00,54.2,44.0,29.78,ESE,117,10.0,12.0,68,0.00,,,0.00,WUHU216DAVISVP2,2013-03-11 01:13:00,
2013-03-10 21:18:00,54.0,43.7,29.78,ESE,110,12.0,13.0,68,0.00,,,0.00,WUHU216DAVISVP2,2013-03-11 01:18:00,
2013-03-10 21:23:00,53.8,43.9,29.77,ESE,120,8.0,14.0,69,0.00,,,0.00,WUHU216DAVISVP2,2013-03-11 01:23:00,
2013-03-10 21:28:00,53.6,44.0,29.77,SE,125,9.0,14.0,70,0.00,,,0.00,WUHU216DAVISVP2,2013-03-11 01:28:00,
2013-03-10 21:33:00,53.6,44.0,29.77,ESE,105,8.0,13.0,70,0.00,,,0.00,WUHU216DAVISVP2,2013-03-11 01:33:00,
2013-03-10 21:38:00,53.4,43.9,29.77,SE,124,5.0,13.0,70,0.00,,,0.00,WUHU216DAVISVP2,2013-03-11 01:38:00,
2013-03-10 21:43:00,53.3,44.1,29.77,ESE,123,9.0,13.0,71,0.01,,,0.01,WUHU216DAVISVP2,2013-03-11 01:43:00,
2013-03-10 21:48:00,53.2,44.1,29.76,ESE,110,15.0,15.0,71,0.01,,,0.01,WUHU216DAVISVP2,2013-03-11 01:48:00,
2013-03-10 21:53:00,53.1,44.1,29.76,SE,126,9.0,15.0,71,0.02,,,0.02,WUHU216DAVISVP2,2013-03-11 01:53:00,
2013-03-10 21:58:00,52.8,44.1,29.76,SE,137,6.0,15.0,72,0.02,,,0.02,WUHU216DAVISVP2,2013-03-11 01:58:00,
2013-03-10 22:03:00,52.8,43.8,29.76,SE,135,8.0,14.0,71,0.02,,,0.02,WUHU216DAVISVP2,2013-03-11 02:03:00,
2013-03-10 22:08:00,52.9,43.9,29.76,SE,134,7.0,14.0,71,0.02,,,0.02,WUHU216DAVISVP2,2013-03-11 02:08:00,
2013-03-10 22:13:00,52.7,43.7,29.76,SE,138,6.0,12.0,71,0.02,,,0.02,WUHU216DAVISVP2,2013-03-11 02:13:00,
2013-03-10 22:18:00,52.6,43.6,29.77,SE,128,8.0,11.0,71,0.02,,,0.02,WUHU216DAVISVP2,2013-03-11 02:18:00,
2013-03-10 22:23:00,52.6,43.6,29.76,SE,134,6.0,13.0,71,0.02,,,0.02,WUHU216DAVISVP2,2013-03-11 02:23:00,
2013-03-10 22:28:00,52.5,43.5,29.76,SE,137,5.0,13.0,71,0.02,,,0.02,WUHU216DAVISVP2,2013-03-11 02:28:00,
2013-03-10 22:33:00,52.4,43.4,29.76,ESE,115,7.0,12.0,71,0.02,,,0.02,WUHU216DAVISVP2,2013-03-11 02:33:00,
2013-03-10 22:38:00,52.2,43.2,29.75,ESE,123,6.0,12.0,71,0.02,,,0.02,WUHU216DAVISVP2,2013-03-11 02:38:00,
2013-03-10 22:43:00,52.1,43.1,29.75,ESE,117,9.0,10.0,71,0.01,,,0.02,WUHU216DAVISVP2,2013-03-11 02:43:00,
2013-03-10 22:48:00,52.1,43.0,29.75,ESE,120,5.0,10.0,71,0.01,,,0.02,WUHU216DAVISVP2,2013-03-11 02:48:00,
2013-03-10 22:53:00,52.1,42.6,29.74,ESE,120,6.0,9.0,70,0.00,,,0.02,WUHU216DAVISVP2,2013-03-11 02:53:00,
2013-03-10 22:58:00,52.0,42.6,29.74,ESE,117,6.0,9.0,70,0.00,,,0.02,WUHU216DAVISVP2,2013-03-11 02:58:00,
2013-03-10 23:03:00,51.7,42.7,29.74,ESE,117,6.0,10.0,71,0.00,,,0.02,WUHU216DAVISVP2,2013-03-11 03:03:00,
2013-03-10 23:08:00,51.6,42.6,29.74,East,99,8.0,11.0,71,0.00,,,0.02,WUHU216DAVISVP2,2013-03-11 03:08:00,
2013-03-10 23:13:00,51.6,42.6,29.74,ESE,123,6.0,11.0,71,0.00,,,0.02,WUHU216DAVISVP2,2013-03-11 03:13:00,
2013-03-10 23:18:00,51.6,42.2,29.74,ESE,120,8.0,12.0,70,0.00,,,0.02,WUHU216DAVISVP2,2013-03-11 03:18:00,
2013-03-10 23:23:00,51.9,42.5,29.74,ESE,120,8.0,12.0,70,0.00,,,0.02,WUHU216DAVISVP2,2013-03-11 03:23:00,
2013-03-10 23:28:00,52.2,42.4,29.74,SE,131,6.0,12.0,69,0.00,,,0.02,WUHU216DAVISVP2,2013-03-11 03:28:00,
2013-03-10 23:33:00,52.3,42.2,29.74,SE,139,5.0,12.0,68,0.00,,,0.02,WUHU216DAVISVP2,2013-03-11 03:33:00,
2013-03-10 23:38:00,52.4,42.3,29.74,SE,136,8.0,11.0,68,0.00,,,0.02,WUHU216DAVISVP2,2013-03-11 03:38:00,
2013-03-10 23:43:00,52.4,42.3,29.74,SE,145,7.0,12.0,68,0.00,,,0.02,WUHU216DAVISVP2,2013-03-11 03:43:00,
2013-03-10 23:48:00,52.8,42.3,29.75,SSE,148,17.0,17.0,67,0.00,,,0.02,WUHU216DAVISVP2,2013-03-11 03:48:00,
2013-03-10 23:53:00,53.1,42.2,29.75,SSE,165,18.0,19.0,66,0.00,,,0.02,WUHU216DAVISVP2,2013-03-11 03:53:00,
2013-03-10 23:58:00,53.4,42.4,29.75,SSE,148,11.0,22.0,66,0.00,,,0.02,WUHU216DAVISVP2,2013-03-11 03:58:00,